DLH8NP EDDM-EDDL

Flight info

Callsign DLH8NP
Flight time 0h 48m
Altitude 32000
Route GIVMI6Q/08L GIVMI Y101 INBED DCT REKDI DCT LOHRE Z850 ARPEG/N0362F240 Z850 ADEMI T854 DOMUX DOMUX1A
Aircraft A319/M-SDE2E3FGIJ1LORWXYZ/HB1

Departure

Time 2026-05-01 10:20
Airport Munich Airport (EDDM)

Arrival

Time 2026-05-01 11:08
Airport Düsseldorf Airport (EDDL)
Time Latitude Longitude Altitude Speed Heading
2026-05-01 10:01 48.35455 11.79305 1472 ft 0 kts 263°
2026-05-01 10:09 48.35458 11.79339 1473 ft 4 kts 262°
2026-05-01 10:09 48.35462 11.79379 1476 ft 4 kts 263°
2026-05-01 10:09 48.35464 11.79411 1477 ft 4 kts 276°
2026-05-01 10:09 48.35456 11.79446 1471 ft 4 kts 321°
2026-05-01 10:10 48.35435 11.79457 1479 ft 4 kts 353°
2026-05-01 10:10 48.35427 11.79459 1474 ft 0 kts 353°
2026-05-01 10:12 48.35451 11.79472 1485 ft 5 kts 27°
2026-05-01 10:13 48.35490 11.79506 1476 ft 8 kts 24°
2026-05-01 10:13 48.35560 11.79504 1485 ft 12 kts 353°
2026-05-01 10:13 48.35645 11.79489 1482 ft 13 kts 353°
2026-05-01 10:14 48.35842 11.79454 1474 ft 16 kts 350°
2026-05-01 10:14 48.35927 11.79353 1481 ft 16 kts 330°
2026-05-01 10:14 48.36026 11.79327 1485 ft 9 kts 353°
2026-05-01 10:14 48.36036 11.79325 1471 ft 2 kts 353°
2026-05-01 10:15 48.36056 11.79322 1485 ft 5 kts 353°
2026-05-01 10:15 48.36090 11.79299 1481 ft 6 kts 293°
2026-05-01 10:15 48.36085 11.79216 1485 ft 10 kts 263°
2026-05-01 10:15 48.36076 11.79093 1477 ft 14 kts 263°
2026-05-01 10:16 48.36064 11.78939 1479 ft 16 kts 263°
2026-05-01 10:16 48.36049 11.78750 1478 ft 20 kts 263°
2026-05-01 10:16 48.36014 11.78288 1485 ft 24 kts 263°
2026-05-01 10:17 48.35996 11.78052 1485 ft 21 kts 263°
2026-05-01 10:17 48.35990 11.77671 1475 ft 14 kts 329°
2026-05-01 10:17 48.36093 11.77658 1485 ft 16 kts
2026-05-01 10:18 48.36212 11.77834 1485 ft 9 kts 53°
2026-05-01 10:18 48.36251 11.77914 1481 ft 10 kts 53°
2026-05-01 10:18 48.36296 11.78006 1485 ft 12 kts 53°
2026-05-01 10:19 48.36348 11.78112 1480 ft 14 kts 53°
2026-05-01 10:19 48.36391 11.78251 1485 ft 17 kts 83°
2026-05-01 10:19 48.36415 11.78559 1486 ft 63 kts 83°
2026-05-01 10:20 48.36606 11.81013 2219 ft 134 kts 85°
2026-05-01 10:20 48.36709 11.82427 2984 ft 145 kts 85°
2026-05-01 10:20 48.36828 11.84052 3544 ft 167 kts 85°
2026-05-01 10:20 48.37181 11.85830 4073 ft 198 kts 57°
2026-05-01 10:21 48.38429 11.87042 4515 ft 238 kts 20°
2026-05-01 10:21 48.41975 11.86464 6209 ft 285 kts 327°
2026-05-01 10:21 48.43309 11.84217 7358 ft 291 kts 306°
2026-05-01 10:22 48.45812 11.79385 9620 ft 296 kts 313°
2026-05-01 10:22 48.48552 11.74598 11349 ft 317 kts 314°
2026-05-01 10:23 48.50049 11.71993 11786 ft 339 kts 313°
2026-05-01 10:23 48.53194 11.66466 13487 ft 353 kts 313°
2026-05-01 10:23 48.54798 11.63634 14370 ft 358 kts 313°
2026-05-01 10:24 48.58063 11.57861 15976 ft 366 kts 314°
2026-05-01 10:24 48.61404 11.51952 17567 ft 374 kts 314°
2026-05-01 10:25 48.64816 11.45907 19057 ft 382 kts 314°
2026-05-01 10:25 48.68267 11.39774 20455 ft 389 kts 314°
2026-05-01 10:26 48.70113 11.36784 21131 ft 389 kts 321°
2026-05-01 10:26 48.72290 11.34271 21822 ft 389 kts 330°
2026-05-01 10:26 48.76795 11.29732 23187 ft 395 kts 330°
2026-05-01 10:27 48.81400 11.25065 24425 ft 401 kts 329°
2026-05-01 10:27 48.86269 11.21020 25505 ft 400 kts 343°
2026-05-01 10:28 48.88915 11.19678 26047 ft 402 kts 345°
2026-05-01 10:28 48.94172 11.16615 27082 ft 412 kts 331°
2026-05-01 10:28 48.96404 11.13822 27585 ft 420 kts 319°
2026-05-01 10:29 49.00545 11.07461 28620 ft 425 kts 317°
2026-05-01 10:29 49.02619 11.04226 29102 ft 428 kts 317°
2026-05-01 10:30 49.06806 10.97702 30089 ft 433 kts 318°
2026-05-01 10:30 49.11166 10.91300 30934 ft 437 kts 320°
2026-05-01 10:31 49.15624 10.84932 31688 ft 441 kts 320°
2026-05-01 10:31 49.20097 10.78451 32364 ft 444 kts 319°
2026-05-01 10:32 49.24453 10.72035 32412 ft 422 kts 319°
2026-05-01 10:32 49.26550 10.68935 32398 ft 417 kts 319°
2026-05-01 10:33 49.34860 10.56684 32413 ft 416 kts 319°
2026-05-01 10:34 49.41112 10.47435 32405 ft 416 kts 319°
2026-05-01 10:34 49.45262 10.41270 32400 ft 416 kts 319°
2026-05-01 10:35 49.51486 10.31987 32385 ft 415 kts 318°
2026-05-01 10:35 49.55631 10.25795 32370 ft 415 kts 318°
2026-05-01 10:36 49.61857 10.16515 32381 ft 415 kts 318°
2026-05-01 10:37 49.66006 10.10321 32368 ft 415 kts 318°
2026-05-01 10:37 49.72210 10.01012 32379 ft 415 kts 318°
2026-05-01 10:38 49.76343 9.94798 32360 ft 414 kts 318°
2026-05-01 10:38 49.80477 9.88580 32363 ft 414 kts 318°
2026-05-01 10:39 49.84595 9.82356 32363 ft 414 kts 318°
2026-05-01 10:39 49.88705 9.76118 32362 ft 414 kts 317°
2026-05-01 10:40 49.92808 9.69866 32366 ft 414 kts 317°
2026-05-01 10:40 49.96917 9.63599 32365 ft 414 kts 317°
2026-05-01 10:41 50.01003 9.57378 32357 ft 414 kts 317°
2026-05-01 10:42 50.07200 9.48025 32364 ft 413 kts 322°
2026-05-01 10:42 50.11656 9.42397 32370 ft 412 kts 323°
2026-05-01 10:43 50.16115 9.36769 32374 ft 412 kts 323°
2026-05-01 10:43 50.20559 9.31132 32374 ft 412 kts 322°
2026-05-01 10:44 50.25010 9.25472 32374 ft 412 kts 322°
2026-05-01 10:44 50.29449 9.19809 32364 ft 412 kts 322°
2026-05-01 10:45 50.33845 9.14198 32368 ft 411 kts 322°
2026-05-01 10:45 50.38284 9.08527 32368 ft 411 kts 322°
2026-05-01 10:46 50.42712 9.02852 32369 ft 411 kts 322°
2026-05-01 10:46 50.47136 8.97176 32369 ft 411 kts 322°
2026-05-01 10:47 50.51557 8.91474 32366 ft 411 kts 322°
2026-05-01 10:47 50.56026 8.85854 32370 ft 411 kts 324°
2026-05-01 10:48 50.60599 8.80428 32139 ft 412 kts 324°
2026-05-01 10:48 50.62899 8.77720 31879 ft 413 kts 324°
2026-05-01 10:48 50.65190 8.75000 31631 ft 413 kts 324°
2026-05-01 10:48 50.67481 8.72252 31380 ft 414 kts 324°
2026-05-01 10:49 50.69769 8.69491 31133 ft 415 kts 324°
2026-05-01 10:49 50.72058 8.66718 30882 ft 415 kts 324°
2026-05-01 10:49 50.74344 8.63948 30487 ft 412 kts 324°
2026-05-01 10:49 50.76611 8.61204 29804 ft 409 kts 324°
2026-05-01 10:50 50.78863 8.58476 29029 ft 408 kts 324°
2026-05-01 10:50 50.81118 8.55740 28269 ft 408 kts 324°
2026-05-01 10:50 50.83358 8.53013 27585 ft 406 kts 324°
2026-05-01 10:50 50.85589 8.50301 26964 ft 403 kts 324°
2026-05-01 10:51 50.87805 8.47608 26327 ft 401 kts 324°
2026-05-01 10:51 50.90005 8.44921 25732 ft 399 kts 324°
2026-05-01 10:51 50.92195 8.42240 25161 ft 397 kts 325°
2026-05-01 10:51 50.94379 8.39569 24605 ft 395 kts 324°
2026-05-01 10:52 50.96552 8.36907 24084 ft 394 kts 324°
2026-05-01 10:52 50.98718 8.34252 23469 ft 393 kts 325°
2026-05-01 10:52 51.00878 8.31606 22869 ft 391 kts 326°
2026-05-01 10:52 51.03156 8.29299 22352 ft 386 kts 333°
2026-05-01 10:53 51.05492 8.27225 21787 ft 384 kts 332°
2026-05-01 10:53 51.07816 8.25160 21270 ft 382 kts 333°
2026-05-01 10:53 51.10129 8.23098 20718 ft 380 kts 333°
2026-05-01 10:53 51.12398 8.21074 20199 ft 378 kts 333°
2026-05-01 10:54 51.14717 8.19006 19642 ft 376 kts 333°
2026-05-01 10:54 51.16999 8.16972 19116 ft 375 kts 332°
2026-05-01 10:54 51.19238 8.14979 18619 ft 373 kts 333°
2026-05-01 10:54 51.21527 8.12931 18094 ft 370 kts 332°
2026-05-01 10:55 51.23732 8.10956 17577 ft 368 kts 332°
2026-05-01 10:55 51.25803 8.08569 16922 ft 369 kts 316°
2026-05-01 10:55 51.27307 8.05280 16321 ft 367 kts 297°
2026-05-01 10:55 51.28386 8.01603 15707 ft 365 kts 295°
2026-05-01 10:56 51.29441 7.97924 15098 ft 363 kts 294°
2026-05-01 10:56 51.30485 7.94250 14519 ft 362 kts 294°
2026-05-01 10:56 51.31515 7.90614 13966 ft 358 kts 294°
2026-05-01 10:56 51.32538 7.87003 13376 ft 354 kts 294°
2026-05-01 10:57 51.33553 7.83433 12767 ft 351 kts 294°
2026-05-01 10:57 51.34559 7.79900 12179 ft 348 kts 294°
2026-05-01 10:57 51.35557 7.76389 11576 ft 345 kts 294°
2026-05-01 10:57 51.36529 7.72968 11348 ft 331 kts 294°
2026-05-01 10:58 51.37457 7.69692 11152 ft 317 kts 294°
2026-05-01 10:58 51.38355 7.66508 10769 ft 313 kts 293°
2026-05-01 10:58 51.39249 7.63333 10313 ft 311 kts 292°
2026-05-01 10:58 51.40134 7.60186 9820 ft 309 kts 292°
2026-05-01 10:59 51.41017 7.57047 9363 ft 309 kts 292°
2026-05-01 10:59 51.41895 7.53928 8982 ft 306 kts 292°
2026-05-01 10:59 51.42623 7.50761 8589 ft 301 kts 279°
2026-05-01 10:59 51.42822 7.47461 8196 ft 296 kts 267°
2026-05-01 11:00 51.42731 7.44228 8003 ft 285 kts 262°
2026-05-01 11:00 51.42545 7.41083 7764 ft 282 kts 261°
2026-05-01 11:00 51.42353 7.37953 7520 ft 281 kts 261°
2026-05-01 11:00 51.42191 7.34880 7308 ft 274 kts 262°
2026-05-01 11:01 51.42060 7.31886 7112 ft 269 kts 263°
2026-05-01 11:01 51.41947 7.28882 6902 ft 268 kts 263°
2026-05-01 11:01 51.41849 7.25929 6640 ft 262 kts 264°
2026-05-01 11:01 51.41758 7.23018 6293 ft 260 kts 264°
2026-05-01 11:02 51.41669 7.20136 5936 ft 258 kts 263°
2026-05-01 11:02 51.41579 7.17278 5566 ft 256 kts 263°
2026-05-01 11:02 51.41489 7.14449 5169 ft 254 kts 262°
2026-05-01 11:02 51.41400 7.11625 4760 ft 252 kts 262°
2026-05-01 11:03 51.41316 7.08847 4344 ft 247 kts 262°
2026-05-01 11:03 51.41235 7.06140 3944 ft 241 kts 261°
2026-05-01 11:03 51.41063 7.03555 3544 ft 230 kts 247°
2026-05-01 11:03 51.40350 7.01335 3138 ft 217 kts 227°
2026-05-01 11:04 51.39484 6.99508 3029 ft 200 kts 227°
2026-05-01 11:04 51.38670 6.97779 3047 ft 191 kts 226°
2026-05-01 11:04 51.37874 6.96095 2857 ft 187 kts 226°
2026-05-01 11:04 51.37093 6.94443 2631 ft 185 kts 227°
2026-05-01 11:05 51.36324 6.92817 2398 ft 181 kts 227°
2026-05-01 11:05 51.35567 6.91220 2159 ft 180 kts 226°
2026-05-01 11:05 51.34834 6.89667 1920 ft 169 kts 226°
2026-05-01 11:05 51.34174 6.88265 1705 ft 147 kts 227°
2026-05-01 11:06 51.33591 6.87035 1504 ft 131 kts 226°
2026-05-01 11:06 51.33061 6.85921 1338 ft 122 kts 225°
2026-05-01 11:06 51.32720 6.85212 1189 ft 118 kts 225°
2026-05-01 11:07 51.31666 6.83008 898 ft 128 kts 225°
2026-05-01 11:07 51.31129 6.81872 750 ft 131 kts 223°
2026-05-01 11:07 51.30574 6.80694 592 ft 135 kts 223°
2026-05-01 11:07 51.30014 6.79514 409 ft 131 kts 228°
2026-05-01 11:08 51.29467 6.78347 212 ft 129 kts 223°
2026-05-01 11:08 51.28951 6.77284 129 ft 110 kts 233°
2026-05-01 11:08 51.28341 6.76061 129 ft 32 kts 199°
2026-05-01 11:09 51.28219 6.76061 127 ft 1 kts 156°
2026-05-01 11:09 51.28199 6.76076 125 ft 5 kts 153°
2026-05-01 11:09 51.28186 6.76090 125 ft 3 kts 146°
2026-05-01 11:10 51.28119 6.76019 129 ft 10 kts 201°
2026-05-01 11:10 51.28079 6.76102 127 ft 12 kts 77°
2026-05-01 11:10 51.28141 6.76234 128 ft 17 kts 55°
2026-05-01 11:10 51.28129 6.76367 128 ft 10 kts 122°
2026-05-01 11:11 51.28074 6.76455 128 ft 10 kts 114°
2026-05-01 11:11 51.28068 6.76531 130 ft 1 kts 97°
2026-05-01 11:11 51.28068 6.76536 131 ft 0 kts 97°